Weather History for Douglas, WY

Change the Weather History Date:

Saturday, February 23, 2013

  Actual Average Record
Temperature  
Mean Temperature 33 °F 28 °F  
Max Temperature 43 °F 42 °F 63 °F (2002)
Min Temperature 22 °F 15 °F -15 °F (2003)
Degree Days  
Heating Degree Days 32 37  
Month to date heating degree days 878 893  
Since 1 July heating degree days 4804 5224  
Cooling Degree Days 0 0  
Month to date cooling degree days 0 0  
Year to date cooling degree days 0 0  
Moisture  
Dew Point 19 °F    
Average Humidity 58    
Maximum Humidity 78    
Minimum Humidity 38    
Precipitation  
Precipitation T in 0.01 in 0.13 in (1986)
Month to date precipitation 0.11 0.34  
Year to date precipitation 0.20 0.72  
Sea Level Pressure  
Sea Level Pressure 29.72 in    
Wind  
Wind Speed 13 mph (WNW)    
Max Wind Speed 25 mph    
Max Gust Speed 32 mph    
Visibility 8 miles    
Events Snow    
T = Trace of Precipitation, MM = Missing Value Source: NWS Daily Summary

Daily Weather History Graph

Daily Weather History Graph

Search for Another Location

Airport:

Trip Planner

Search our weather history database for the weather conditions in past years. The results will help you decide how hot, cold, wet, or windy it might be!

Date:

Astronomy

Feb. 23, 2013 Rise Set
Actual Time 6:46 AM MST 5:43 PM MST
Civil Twilight 6:17 AM MST 6:12 PM MST
Nautical Twilight 5:44 AM MST 6:45 PM MST
Astronomical Twilight 5:12 AM MST 7:18 PM MST
Moon 3:55 PM MST (2/23) 5:12 AM MST (2/23)
Length of Visible Light 11h 54m
Length of Day
10h 57m
Waxing Gibbous, 95% of the Moon is Illuminated
Feb 23
Waxing Gibbous
Feb 25
Full
Mar 4
Last Quarter
Mar 11
New
Mar 19
First Quarter

Hourly Weather History & Observations

Time (MST) Temp. Windchill Dew Point Humidity Pressure Visibility Wind Dir Wind Speed Gust Speed Precip Events Conditions
12:53 AM 24.1 °F 13.1 °F 10.9 °F 57% 29.80 in 10.0 mi West 11.5 mph - N/A   Clear
1:53 AM 26.1 °F 13.6 °F 10.9 °F 53% 29.77 in 10.0 mi West 16.1 mph 23.0 mph N/A   Clear
2:53 AM 26.1 °F 14.0 °F 12.0 °F 55% 29.74 in 10.0 mi West 15.0 mph 23.0 mph N/A   Clear
3:53 AM 25.0 °F 17.1 °F 12.0 °F 58% 29.74 in 10.0 mi West 6.9 mph - N/A   Clear
5:53 AM 28.0 °F 18.1 °F 12.9 °F 53% 29.74 in 10.0 mi NW 11.5 mph - N/A   Mostly Cloudy
6:53 AM 28.9 °F 23.9 °F 14.0 °F 54% 29.73 in 10.0 mi NW 4.6 mph - N/A   Mostly Cloudy
7:53 AM 32.0 °F 22.1 °F 15.1 °F 50% 29.75 in 10.0 mi WNW 13.8 mph 19.6 mph N/A   Mostly Cloudy
8:53 AM 34.0 °F 24.6 °F 16.0 °F 48% 29.75 in 10.0 mi West 13.8 mph - N/A   Overcast
9:53 AM 35.1 °F 23.5 °F 16.0 °F 46% 29.75 in 10.0 mi West 21.9 mph 28.8 mph N/A   Overcast
10:53 AM 41.0 °F 33.9 °F 18.0 °F 40% 29.70 in 10.0 mi West 12.7 mph - N/A   Overcast
11:53 AM 41.0 °F 31.9 °F 18.0 °F 40% 29.68 in 10.0 mi West 19.6 mph 26.5 mph N/A   Scattered Clouds
12:53 PM 41.0 °F 31.1 °F 17.1 °F 38% 29.65 in 10.0 mi West 23.0 mph 28.8 mph N/A   Partly Cloudy
1:53 PM 39.9 °F 32.1 °F 18.0 °F 41% 29.64 in 10.0 mi West 13.8 mph - N/A   Partly Cloudy
2:53 PM 42.1 °F 34.5 °F 19.0 °F 40% 29.62 in 10.0 mi WNW 15.0 mph 20.7 mph N/A   Clear
3:53 PM 37.9 °F 29.2 °F 18.0 °F 45% 29.65 in 10.0 mi West 15.0 mph - N/A   Clear
4:53 PM 37.0 °F 29.3 °F 19.0 °F 48% 29.68 in 10.0 mi West 11.5 mph - N/A   Mostly Cloudy
5:53 PM 33.1 °F 28.7 °F 19.9 °F 59% 29.70 in 10.0 mi West 4.6 mph - N/A   Overcast
6:53 PM 32.0 °F 25.6 °F 21.0 °F 64% 29.72 in 10.0 mi WNW 6.9 mph - N/A   Overcast
7:53 PM 33.1 °F 24.9 °F 21.0 °F 61% 29.73 in 10.0 mi NW 10.4 mph - N/A   Overcast
8:53 PM 30.0 °F 19.5 °F 26.1 °F 85% 29.75 in 9.0 mi WNW 13.8 mph - 0.00 in Snow Light Snow
9:53 PM 30.9 °F 21.7 °F 26.1 °F 82% 29.75 in 10.0 mi NW 11.5 mph - 0.00 in   Overcast
10:53 PM 30.0 °F 21.1 °F 25.0 °F 82% 29.75 in 9.0 mi North 10.4 mph - N/A   Overcast
11:01 PM 30.2 °F 22.6 °F 24.8 °F 80% 29.73 in 3.0 mi North 8.1 mph - 0.00 in Snow Light Snow
11:10 PM 30.2 °F 24.3 °F 26.6 °F 86% 29.73 in 2.0 mi NNW 5.8 mph - 0.00 in Snow Light Snow
11:14 PM 30.2 °F 26.7 °F 26.6 °F 86% 29.73 in 1.8 mi NNW 3.5 mph - 0.00 in Snow Light Snow
11:24 PM 30.2 °F 25.4 °F 26.6 °F 86% 29.73 in 1.0 mi NNW 4.6 mph - 0.00 in Snow Light Snow
11:32 PM 30.2 °F 25.4 °F 26.6 °F 86% 29.74 in 1.0 mi North 4.6 mph - 0.00 in Snow Light Snow
11:53 PM 30.0 °F 22.4 °F 28.0 °F 92% 29.76 in 1.0 mi North 8.1 mph - 0.00 in Snow Light Snow